Voltar ao catálogo

CZ-8A R/B

AtivoLEO
NORAD 68138·ROCKET BODY·🇨🇳 China

Lançado Mar 12, 2026 de Wenchang Space Launch Site

Loading…

Próximas Passagens (próximas 24 horas)

TLE

AtualizadoSource: Space-Track

Época: Sep 14, 2026, 16:34 UTC

1 68138U 26047K   26257.69052188 -.00000049  00000-0  56727-4 0  9991
2 68138  49.9538   9.1802 0044836  67.6360 292.9290 14.12258637 26267

Acompanhe CZ-8A R/B em tempo real com AllMySat

Download on the App Store